TimeEST,TemperatureF,Dew PointF,Humidity,Sea Level PressureIn,VisibilityMPH,Wind Direction,Wind SpeedMPH,Gust SpeedMPH,PrecipitationIn,Events,Conditions,WindDirDegrees,DateUTC
12:00 AM,-4.0,-7.6,85,30.41,25.0,Calm,Calm,-,N/A,,Clear,0,2013-02-10 05:00:00
1:00 AM,-5.8,-9.4,84,30.42,25.0,West,2.3,-,N/A,,Clear,280,2013-02-10 06:00:00
2:00 AM,-5.8,-11.2,77,30.42,25.0,Calm,Calm,-,N/A,,Clear,0,2013-02-10 07:00:00
3:00 AM,-9.4,-13.0,84,30.42,25.0,WSW,2.3,-,N/A,,Clear,250,2013-02-10 08:00:00
4:00 AM,-11.2,-16.6,77,30.43,25.0,West,3.5,-,N/A,,Clear,260,2013-02-10 09:00:00
5:00 AM,-13.0,-16.6,84,30.43,25.0,West,2.3,-,N/A,,Clear,260,2013-02-10 10:00:00
6:00 AM,-11.2,-14.8,84,30.44,25.0,Calm,Calm,-,N/A,,Clear,0,2013-02-10 11:00:00
7:00 AM,-11.2,-16.6,77,30.47,20.0,Calm,Calm,-,N/A,,Clear,0,2013-02-10 12:00:00
8:00 AM,-9.4,-13.0,84,30.48,20.0,Calm,Calm,-,N/A,,Partly Cloudy,0,2013-02-10 13:00:00
9:00 AM,-4.0,-7.6,85,30.49,15.0,West,4.6,-,N/A,,Partly Cloudy,260,2013-02-10 14:00:00
10:00 AM,5.0,-4.0,66,30.50,15.0,SW,5.8,-,N/A,,Scattered Clouds,220,2013-02-10 15:00:00
11:00 AM,8.6,-2.2,62,30.50,20.0,SSW,5.8,-,N/A,,Mostly Cloudy,210,2013-02-10 16:00:00
12:00 PM,12.2,-2.2,53,30.48,25.0,SSW,9.2,-,N/A,,Mostly Cloudy,210,2013-02-10 17:00:00
1:00 PM,15.8,-2.2,45,30.44,25.0,SSW,6.9,-,N/A,,Mostly Cloudy,210,2013-02-10 18:00:00
2:00 PM,19.4,-0.4,42,30.40,30.0,SSW,5.8,-,N/A,,Mostly Cloudy,200,2013-02-10 19:00:00
3:00 PM,21.2,-4.0,33,30.41,25.0,SSW,8.1,-,N/A,,Mostly Cloudy,210,2013-02-10 20:00:00
4:00 PM,19.4,-0.4,42,30.40,25.0,Calm,Calm,-,N/A,,Mostly Cloudy,0,2013-02-10 21:00:00
5:00 PM,17.6,-0.4,45,30.39,25.0,ESE,2.3,-,N/A,,Mostly Cloudy,120,2013-02-10 22:00:00
6:00 PM,15.8,-0.4,49,30.38,25.0,East,2.3,-,N/A,,Mostly Cloudy,80,2013-02-10 23:00:00
7:00 PM,12.2,-0.4,57,30.37,25.0,East,4.6,-,N/A,,Scattered Clouds,80,2013-02-11 00:00:00
8:00 PM,10.4,-2.2,57,30.35,25.0,NNE,4.6,-,N/A,,Scattered Clouds,30,2013-02-11 01:00:00
9:00 PM,8.6,-2.2,62,30.32,25.0,NNE,4.6,-,N/A,,Partly Cloudy,20,2013-02-11 02:00:00
10:00 PM,8.6,-2.2,62,30.29,25.0,NE,6.9,-,N/A,,Clear,40,2013-02-11 03:00:00
11:00 PM,6.8,-0.4,72,30.27,25.0,ENE,8.1,-,N/A,,Clear,60,2013-02-11 04:00:00